| time (UTC) | temp F | wind direction | speed MPH | gust MPH | rain 1hr in | rain 24hr in | rain mn in | humidity % | barometer mb |
| 20260503210031 | 50 | 332 | 7.0 | 21.0 | 0.00 | 0.00 | 0.00 | 51 | 953.0 |
| 20260503204530 | 51 | 276 | 4.0 | 13.0 | 0.00 | 0.00 | 0.00 | 49 | 953.0 |
| 20260503203034 | 52 | 347 | 9.0 | 19.0 | 0.00 | 0.00 | 0.00 | 47 | 952.8 |
| 20260503201531 | 52 | 271 | 7.0 | 12.0 | 0.00 | 0.00 | 0.00 | 46 | 952.9 |
| 20260503200031 | 51 | 280 | 7.0 | 16.0 | 0.00 | 0.00 | 0.00 | 45 | 953.0 |
| 20260503194530 | 51 | 342 | 5.0 | 19.0 | 0.00 | 0.00 | 0.00 | 46 | 953.1 |
| 20260503193024 | 51 | 355 | 6.0 | 11.0 | 0.00 | 0.00 | 0.00 | 44 | 953.4 |
| 20260503191526 | 51 | 287 | 7.0 | 14.0 | 0.00 | 0.00 | 0.00 | 43 | 953.4 |
| 20260503190024 | 52 | 247 | 7.0 | 14.0 | 0.00 | 0.00 | 0.00 | 43 | 953.5 |
| 20260503184526 | 52 | 281 | 6.0 | 14.0 | 0.00 | 0.00 | 0.00 | 41 | 953.6 |
| 20260503183027 | 52 | 283 | 6.0 | 14.0 | 0.00 | 0.00 | 0.00 | 42 | 953.9 |
| 20260503181527 | 51 | 321 | 7.0 | 18.0 | 0.00 | 0.00 | 0.00 | 41 | 953.9 |
| 20260503180016 | 52 | 292 | 7.0 | 13.0 | 0.00 | 0.00 | 0.00 | 44 | 953.9 |
| 20260503174513 | 51 | 265 | 4.0 | 13.0 | 0.00 | 0.00 | 0.00 | 42 | 954.3 |
| 20260503173036 | 49 | 287 | 4.0 | 15.0 | 0.00 | 0.00 | 0.00 | 44 | 954.4 |
| 20260503171512 | 50 | 257 | 6.0 | 18.0 | 0.00 | 0.00 | 0.00 | 42 | 954.6 |
| 20260503100105 | 35 | 324 | 3.0 | 6.0 | 0.00 | 0.00 | 0.00 | 83 | 954.8 |
| 20260503081543 | 35 | 287 | 2.0 | 9.0 | 0.00 | 0.00 | 0.00 | 82 | 954.6 |
| 20260503071538 | 35 | 283 | 2.0 | 6.0 | 0.00 | 0.00 | 0.00 | 83 | 954.6 |
| 20260503054530 | 35 | 274 | 1.0 | 4.0 | 0.00 | 0.00 | 0.00 | 83 | 955.0 |
| 20260503053037 | 35 | 34 | 2.0 | 6.0 | 0.00 | 0.00 | 0.00 | 83 | 955.2 |
| 20260503051527 | 35 | 280 | 3.0 | 8.0 | 0.00 | 0.00 | 0.00 | 82 | 955.3 |
| 20260503050024 | 35 | 331 | 3.0 | 8.0 | 0.00 | 0.00 | 0.00 | 82 | 955.7 |
| 20260503044556 | 35 | 286 | 2.0 | 4.0 | 0.00 | 0.01 | 0.00 | 81 | 955.7 |
| 20260503043020 | 35 | 280 | 1.0 | 6.0 | 0.00 | 0.01 | 0.00 | 80 | 955.9 |
| 20260503041518 | 35 | 286 | 0.0 | 4.0 | 0.00 | 0.01 | 0.00 | 79 | 956.0 |
| 20260503040017 | 35 | 320 | 0.0 | 4.0 | 0.00 | 0.03 | 0.01 | 79 | 955.9 |
| 20260503034515 | 35 | 309 | 1.0 | 6.0 | 0.00 | 0.03 | 0.01 | 79 | 955.8 |
| 20260503033014 | 36 | 286 | 2.0 | 6.0 | 0.00 | 0.03 | 0.01 | 78 | 956.0 |
| 20260503031512 | 36 | 319 | 1.0 | 4.0 | 0.00 | 0.03 | 0.01 | 78 | 956.0 |
| 20260503030013 | 36 | 321 | 2.0 | 9.0 | 0.00 | 0.06 | 0.01 | 77 | 955.9 |
| 20260503024511 | 37 | 291 | 1.0 | 4.0 | 0.00 | 0.06 | 0.01 | 76 | 956.0 |
| 20260503023011 | 37 | 280 | 3.0 | 7.0 | 0.00 | 0.06 | 0.01 | 75 | 956.1 |
| 20260503021517 | 37 | 336 | 1.0 | 5.0 | 0.00 | 0.06 | 0.01 | 74 | 956.2 |
| 20260503020009 | 37 | 344 | 2.0 | 5.0 | 0.00 | 0.08 | 0.01 | 74 | 956.1 |
| 20260503014508 | 38 | 331 | 2.0 | 9.0 | 0.00 | 0.08 | 0.01 | 73 | 956.1 |
| 20260503013008 | 38 | 299 | 1.0 | 7.0 | 0.00 | 0.08 | 0.01 | 73 | 956.1 |
| 20260503011506 | 39 | 289 | 2.0 | 6.0 | 0.00 | 0.08 | 0.01 | 73 | 956.1 |
| 20260503010006 | 39 | 311 | 3.0 | 8.0 | 0.00 | 0.10 | 0.01 | 72 | 955.9 |
| 20260503004507 | 39 | 277 | 1.0 | 6.0 | 0.00 | 0.10 | 0.01 | 69 | 955.7 |
| 20260503003006 | 40 | 267 | 2.0 | 5.0 | 0.00 | 0.10 | 0.01 | 67 | 955.5 |
| 20260503001508 | 40 | 294 | 3.0 | 7.0 | 0.00 | 0.10 | 0.01 | 65 | 955.7 |
| 20260503000013 | 41 | 322 | 1.0 | 5.0 | 0.00 | 0.13 | 0.01 | 63 | 955.7 |
| 20260502234506 | 41 | 290 | 4.0 | 8.0 | 0.00 | 0.13 | 0.01 | 62 | 955.5 |
| 20260502233003 | 41 | 281 | 3.0 | 10.0 | 0.00 | 0.13 | 0.01 | 61 | 955.4 |
| 20260502231502 | 42 | 323 | 3.0 | 9.0 | 0.00 | 0.13 | 0.01 | 60 | 955.2 |
| 20260502230002 | 42 | 286 | 3.0 | 8.0 | 0.00 | 0.13 | 0.01 | 60 | 955.2 |
| 20260502224501 | 43 | 355 | 3.0 | 9.0 | 0.00 | 0.13 | 0.01 | 58 | 955.2 |
| 20260502223107 | 43 | 346 | 3.0 | 11.0 | 0.00 | 0.13 | 0.01 | 58 | 955.1 |
| 20260502221603 | 43 | 312 | 5.0 | 10.0 | 0.00 | 0.13 | 0.01 | 58 | 955.0 |
| 20260502220104 | 43 | 296 | 5.0 | 9.0 | 0.00 | 0.13 | 0.01 | 59 | 954.9 |
| 20260502214617 | 43 | 257 | 7.0 | 12.0 | 0.00 | 0.13 | 0.01 | 59 | 955.1 |
| 20260502213120 | 43 | 259 | 3.0 | 11.0 | 0.00 | 0.13 | 0.01 | 59 | 955.1 |
| 20260502211559 | 43 | 263 | 5.0 | 9.0 | 0.00 | 0.13 | 0.01 | 60 | 955.0 |